Weather History for KMIA - December, 2011

Change the Weather History Date:

Saturday, December 10, 2011

  Actual Average Record
Temperature  
Mean Temperature 78 °F 71 °F  
Max Temperature 82 °F 79 °F 89 °F (2009)
Min Temperature 74 °F 64 °F 37 °F (1917)
Degree Days  
Heating Degree Days 0 1  
Month to date heating degree days 0 6  
Since 1 July heating degree days 0 9  
Cooling Degree Days 13 7  
Month to date cooling degree days 83 75  
Year to date cooling degree days 4814 4447  
Growing Degree Days 27 (Base 50)    
Moisture  
Dew Point 67 °F    
Average Humidity 76    
Maximum Humidity 93    
Minimum Humidity 58    
Precipitation  
Precipitation 0.01 in 0.07 in 5.06 in (2000)
Month to date precipitation 0.28 0.70  
Year to date precipitation 63.02 60.56  
Snow  
Snow 0.00 in - - ()
Month to date snowfall 0.0  
Since 1 July snowfall 0.0  
Snow Depth 0.00 in    
Sea Level Pressure  
Sea Level Pressure 30.08 in    
Wind  
Wind Speed 8 mph (ENE)    
Max Wind Speed 17 mph    
Max Gust Speed 22 mph    
Visibility 10 miles    
Events      
T = Trace of Precipitation, MM = Missing Value Source: NWS Daily Summary

Daily Weather History Graph

Daily Weather History Graph

Search for Another Location

Airport or City:

Trip Planner

Search our weather history database for the weather conditions in past years. The results will help you decide how hot, cold, wet, or windy it might be!

Date:

Astronomy

Dec. 10, 2011 Rise Set
Actual Time 6:56 AM EST 5:31 PM EST
Civil Twilight 6:31 AM EST 5:56 PM EST
Nautical Twilight 6:03 AM EST 6:24 PM EST
Astronomical Twilight 5:35 AM EST 6:52 PM EST
Moon 5:44 PM EST (12/10) 6:54 AM EST (12/10)
Length of Visible Light 11h 24m
Length of Day
10h 34m
Full, 100% of the Moon is Illuminated
Dec 10
Full
Dec 17
Last Quarter
Dec 24
New
Jan 1
First Quarter
Jan 9
Full

Hourly Weather History & Observations

Time (EST) Temp. Heat Index Dew Point Humidity Pressure Visibility Wind Dir Wind Speed Gust Speed Precip Events Conditions
12:53 AM 75.0 °F - 72.0 °F 90% 30.09 in 10.0 mi ENE 5.8 mph - 0.04 in   Mostly Cloudy
1:53 AM 75.0 °F - 71.1 °F 87% 30.07 in 10.0 mi NE 4.6 mph - 0.00 in   Mostly Cloudy
2:53 AM 75.2 °F - 71.6 °F 89% 30.05 in 10.0 mi Calm Calm - N/A   Mostly Cloudy
3:53 AM 73.9 °F - 71.1 °F 91% 30.05 in 10.0 mi Calm Calm - N/A   Mostly Cloudy
4:53 AM 75.0 °F - 70.0 °F 84% 30.05 in 10.0 mi Variable 3.5 mph - N/A   Mostly Cloudy
5:53 AM 75.0 °F - 70.0 °F 84% 30.06 in 10.0 mi East 11.5 mph - N/A   Mostly Cloudy
6:53 AM 75.0 °F - 66.9 °F 76% 30.07 in 10.0 mi ENE 5.8 mph - N/A   Mostly Cloudy
7:53 AM 75.9 °F - 66.9 °F 74% 30.08 in 10.0 mi ESE 8.1 mph - N/A   Mostly Cloudy
8:53 AM 78.1 °F - 66.9 °F 68% 30.11 in 10.0 mi ESE 9.2 mph - N/A   Mostly Cloudy
9:53 AM 78.1 °F - 66.9 °F 68% 30.12 in 10.0 mi East 11.5 mph - N/A   Mostly Cloudy
10:53 AM 79.0 °F - 66.9 °F 66% 30.12 in 10.0 mi East 13.8 mph - N/A   Mostly Cloudy
11:53 AM 80.1 °F 82.3 °F 66.9 °F 64% 30.10 in 10.0 mi East 12.7 mph 18.4 mph N/A   Overcast
12:05 PM 80.6 °F 82.7 °F 66.2 °F 61% 30.09 in 10.0 mi East 13.8 mph 19.6 mph N/A   Overcast
12:42 PM 78.8 °F - 66.2 °F 65% 30.07 in 10.0 mi East 12.7 mph - N/A   Mostly Cloudy
12:53 PM 80.1 °F 82.3 °F 66.9 °F 64% 30.07 in 10.0 mi East 15.0 mph - N/A   Mostly Cloudy
1:53 PM 80.1 °F 81.9 °F 64.9 °F 60% 30.06 in 10.0 mi ENE 11.5 mph - N/A   Mostly Cloudy
2:53 PM 81.0 °F 82.7 °F 64.9 °F 58% 30.06 in 10.0 mi East 13.8 mph - N/A   Mostly Cloudy
3:53 PM 79.0 °F - 64.9 °F 62% 30.06 in 10.0 mi ENE 5.8 mph - N/A   Scattered Clouds
4:53 PM 78.1 °F - 66.0 °F 66% 30.06 in 10.0 mi ENE 8.1 mph - N/A   Mostly Cloudy
5:53 PM 77.0 °F - 66.0 °F 69% 30.07 in 10.0 mi ENE 9.2 mph - N/A   Mostly Cloudy
6:53 PM 75.9 °F - 66.0 °F 71% 30.08 in 10.0 mi ENE 6.9 mph - N/A   Mostly Cloudy
7:53 PM 75.9 °F - 66.0 °F 71% 30.09 in 10.0 mi NE 5.8 mph - N/A   Mostly Cloudy
8:53 PM 75.0 °F - 66.9 °F 76% 30.10 in 10.0 mi NE 6.9 mph - N/A   Scattered Clouds
9:53 PM 75.0 °F - 66.9 °F 76% 30.11 in 10.0 mi NE 8.1 mph - N/A   Mostly Cloudy
10:53 PM 75.0 °F - 68.0 °F 79% 30.11 in 10.0 mi NE 5.8 mph - N/A   Mostly Cloudy
11:53 PM 75.0 °F - 66.0 °F 73% 30.10 in 10.0 mi NE 6.9 mph - 0.00 in   Mostly Cloudy